This demonstration page uses our WeatherBlox Daily Observations layout. Learn more.

Left ArrowRight Arrow

44.89941, -97.11507

Hourly Observations for November 4, 2019

Temp ( °F °C ) Dew Point ( °F °C ) Humidity (%) Winds ( mph kmh ) Pressure ( in mb ) Visibility ( mi km ) Precip ( " mm )
12:05 am 00:05 Cloudy 35 1.7 33 0.6 93 93 NW 13 20 29.95 1014 10 16 0.00 0.00
12:53 am 00:53 Cloudy 35 1.7 33 0.6 93 93 NW 9 15 29.93 1013 10 16 0.00 0.00
1:53 am 01:53 Cloudy 34 1.1 31 -0.6 89 89 WNW 10 17 29.94 1014 10 16 0.00 0.00
2:03 am 02:03 Cloudy 34 1.1 31 -0.6 89 89 NW 10 17 29.97 1015 10 16 0.00 0.00
2:42 am 02:42 Cloudy 34 1.1 32 0 92 92 WNW 9 15 29.98 1015 10 16 0.00 0.00
2:51 am 02:51 Cloudy 34 1 32 0 93 93 NW 10 17 29.99 1016 10 16 0.00 0.00
2:53 am 02:53 Cloudy 34 1.1 32 0 92 92 NW 10 17 29.96 1014 10 16 0.00 0.00
3:36 am 03:36 Cloudy 34 1.1 32 0 92 92 WNW 12 19 29.99 1016 10 16 0.00 0.00
3:53 am 03:53 Cloudy 34 1.1 32 0 92 92 WNW 13 20 29.97 1015 10 16 0.00 0.00
4:06 am 04:06 Cloudy 34 1.1 31 -0.6 89 89 WNW 13 20 30.00 1016 10 16 0.00 0.00
4:15 am 04:15 Cloudy 34 1.1 31 -0.6 89 89 WNW 12 19 30.00 1016 10 16 0.00 0.00
4:53 am 04:53 Cloudy 34 1.1 32 0 92 92 WNW 9 15 29.98 1015 10 16 0.00 0.00
5:00 am 05:00 Cloudy 34 1.1 32 0 92 92 WNW 9 15 30.01 1016 10 16 0.00 0.00
5:53 am 05:53 Cloudy 33 0.6 31 -0.6 92 92 WNW 10 17 30.00 1016 10 16 0.00 0.00
6:50 am 06:50 Cloudy 34 1 30 -1 87 87 WNW 9 15 30.04 1017 10 16 0.00 0.00
6:53 am 06:53 Cloudy 33 0.6 31 -0.6 92 92 W 10 17 30.02 1017 10 16 0.00 0.00
7:53 am 07:53 Mostly Cloudy 32 0 30 -1.1 92 92 WNW 10 17 30.04 1017 10 16 0.00 0.00
8:37 am 08:37 Cloudy 32 0 30 -1.1 92 92 WNW 10 17 30.09 1019 10 16 0.00 0.00
8:53 am 08:53 Cloudy 33 0.6 30 -1.1 89 89 WNW 10 17 30.06 1018 10 16 0.00 0.00
9:28 am 09:28 Cloudy with Light Snow 33 0.6 31 -0.6 92 92 WNW 12 19 30.10 1019 4 6 0.00 0.00
9:39 am 09:39 Cloudy with Light Snow 33 0.6 31 -0.6 92 92 WNW 14 22 30.10 1019 2 3 0.00 0.00
9:49 am 09:49 Cloudy with Light Snow 34 1 30 -1 87 87 WNW 12 19 30.09 1019 3 4 0.00 0.00
9:53 am 09:53 Cloudy with Light Snow 33 0.6 31 -0.6 92 92 WNW 13 20 30.07 1018 3 5 0.00 0.00
10:07 am 10:07 Cloudy with Light Snow 33 0.6 31 -0.6 92 92 WNW 14 22 30.11 1019 3 4 0.00 0.00
10:40 am 10:40 Cloudy with Light Snow 34 1.1 32 0 92 92 NW 13 20 30.10 1019 3 5 0.00 0.00
10:48 am 10:48 Cloudy 34 1 30 -1 87 87 NW 14 22 30.10 1019 9 14 0.00 0.00
10:53 am 10:53 Cloudy 34 1.1 31 -0.6 89 89 NW 13 20 30.08 1019 10 16 0.00 0.00
11:11 am 11:11 Cloudy 35 1.7 30 -1.1 82 82 NW 13 20 30.11 1020 10 16 0.00 0.00
11:53 am 11:53 Cloudy 35 1.7 29 -1.7 78 78 NW 14 22 30.09 1019 10 16 0.00 0.00
12:03 pm 12:03 Cloudy 35 1.7 29 -1.7 78 78 NW 13 20 30.11 1020 10 16 0.00 0.00
12:53 pm 12:53 Cloudy 35 1.7 27 -2.8 72 72 NW 18 30 30.09 1019 10 16 0.00 0.00
1:53 pm 13:53 Cloudy 35 1.7 25 -3.9 67 67 NW 17 28 30.10 1019 10 16 0.00 0.00
2:53 pm 14:53 Cloudy with Light Snow 33 0.6 26 -3.3 75 75 WNW 17 28 30.11 1020 7 11 0.00 0.00
3:10 pm 15:10 Windy with Snow Likely 33 0.6 28 -2.2 82 82 NW 22 35 30.15 1021 5 8 0.00 0.00
3:53 pm 15:53 Cloudy 32 0 26 -3.3 79 79 NW 15 24 30.15 1021 10 16 0.00 0.00
4:02 pm 16:02 Cloudy 32 0 25 -3.9 75 75 NNW 16 26 30.17 1022 10 16 0.00 0.00
4:53 pm 16:53 Cloudy 31 -0.6 22 -5.6 69 69 NW 15 24 30.16 1021 10 16 0.00 0.00
5:53 pm 17:53 Cloudy 29 -1.7 22 -5.6 75 75 NNW 20 31 30.19 1022 10 16 0.00 0.00
6:53 pm 18:53 Cloudy 27 -2.8 18 -7.8 69 69 NW 13 20 30.22 1023 10 16 0.00 0.00
7:53 pm 19:53 Cloudy 27 -2.8 16 -8.9 63 63 NNW 20 31 30.23 1024 10 16 0.00 0.00
8:53 pm 20:53 Cloudy 25 -3.9 14 -10 63 63 NW 17 28 30.25 1024 10 16 0.00 0.00
9:53 pm 21:53 Clear 22 -5.6 13 -10.6 68 68 NW 12 19 30.27 1025 10 16 0.00 0.00
10:53 pm 22:53 Clear 21 -6.1 13 -10.6 71 71 NW 12 19 30.28 1025 10 16 0.00 0.00
11:53 pm 23:53 Clear 20 -6.7 13 -10.6 74 74 NW 8 13 30.28 1026 10 16 0.00 0.00

Powered by AerisWeather